Location: D�pe
(52.6057°N, 8.1808°E)
Time: 01:50:42
(UTC+00:00)

Meteor 2-10 Rocket - Pass Details

Date: 29 October 2020
Orbit: 733 x 885 km, 81.2° (Epoch: 23 November)

Event Time Altitude Azimuth Distance (km) Brightness Sun altitude
Rises 17:49:42 0° 183° (S) 3,282 6.8 -16.8°
Reaches altitude 10° 17:52:07 10° 181° (S) 2,335 6.0 -17.1°
Maximum altitude 17:57:19 69° 99° (E) 817 3.4 -17.9°
Drops below altitude 10° 18:02:23 10° 17° (NNE) 2,274 5.8 -18.7°
Sets 18:04:42 0° 15° (NNE) 3,191 6.6 -19.0°
